Location: North Bay Shore
(40.7362°N, 73.2626°W)
Time: 05:51:34
(UTC+00:00)

USA 307 - Pass Details

Date: 29 October 2020
Orbit: 569 x 579 km, 54.0° (Epoch: 23 November)

Event Time Altitude Azimuth Distance (km) Brightness Sun altitude
Rises 23:28:05 0° 312° (NW) 2,787 7.1 -18.6°
Reaches altitude 10° 23:30:23 10° 317° (NW) 1,884 6.1 -19.1°
Maximum altitude 23:34:36 55° 36° (NE) 689 3.0 -19.9°
Enters shadow 23:35:05 52° 65° (ENE) 718 3.0 -20.0°
